AAL520 MYNN-KMCO

Flight info

Callsign AAL520
Flight time N/A
Altitude 24000
Route PEACH DCT CCLUB MUNGI1
Aircraft A21N/M-SDE2E3FGHIRWXY/LB1

Departure

Time N/A
Airport Lynden Pindling International Airport (MYNN)

Arrival

Time 2026-05-05 01:48
Airport Orlando International Airport (KMCO)
Time Latitude Longitude Altitude Speed Heading
2026-05-05 00:55 25.51149 -77.85188 23998 ft 402 kts 313°
2026-05-05 00:55 25.53260 -77.87216 24018 ft 402 kts 313°
2026-05-05 00:55 25.55372 -77.89242 24016 ft 402 kts 313°
2026-05-05 00:55 25.57486 -77.91270 24016 ft 402 kts 313°
2026-05-05 00:56 25.59604 -77.93300 24011 ft 402 kts 313°
2026-05-05 00:56 25.61715 -77.95327 24012 ft 402 kts 313°
2026-05-05 00:56 25.63799 -77.97331 24007 ft 402 kts 313°
2026-05-05 00:56 25.65929 -77.99387 24012 ft 415 kts 313°
2026-05-05 00:57 25.68148 -78.01534 24020 ft 433 kts 313°
2026-05-05 00:57 25.70466 -78.03771 24024 ft 449 kts 314°
2026-05-05 00:57 25.72848 -78.06065 24028 ft 455 kts 314°
2026-05-05 00:57 25.75234 -78.08362 24022 ft 455 kts 314°
2026-05-05 00:58 25.77624 -78.10666 24014 ft 455 kts 314°
2026-05-05 00:58 25.80010 -78.12969 24014 ft 455 kts 314°
2026-05-05 00:58 25.82397 -78.15276 24015 ft 455 kts 314°
2026-05-05 00:58 25.84783 -78.17581 24017 ft 455 kts 314°
2026-05-05 00:59 25.87137 -78.19860 24017 ft 455 kts 314°
2026-05-05 00:59 25.89546 -78.22196 24016 ft 455 kts 313°
2026-05-05 00:59 25.91887 -78.24465 24017 ft 455 kts 314°
2026-05-05 00:59 25.94269 -78.26776 24017 ft 455 kts 314°
2026-05-05 01:00 25.96651 -78.29083 24022 ft 455 kts 314°
2026-05-05 01:00 25.99034 -78.31394 24022 ft 455 kts 314°
2026-05-05 01:00 26.01417 -78.33709 24021 ft 455 kts 314°
2026-05-05 01:00 26.03801 -78.36023 24020 ft 455 kts 314°
2026-05-05 01:01 26.06184 -78.38341 24019 ft 455 kts 314°
2026-05-05 01:01 26.08564 -78.40655 24021 ft 455 kts 314°
2026-05-05 01:01 26.10948 -78.42975 24023 ft 455 kts 314°
2026-05-05 01:01 26.13299 -78.45263 24026 ft 455 kts 314°
2026-05-05 01:02 26.15679 -78.47584 24023 ft 455 kts 314°
2026-05-05 01:02 26.18063 -78.49908 24027 ft 455 kts 314°
2026-05-05 01:02 26.20441 -78.52225 24027 ft 455 kts 314°
2026-05-05 01:02 26.22822 -78.54546 24029 ft 455 kts 314°
2026-05-05 01:03 26.25204 -78.56877 24034 ft 455 kts 314°
2026-05-05 01:03 26.27589 -78.59208 24036 ft 456 kts 314°
2026-05-05 01:03 26.29969 -78.61535 24036 ft 456 kts 314°
2026-05-05 01:03 26.32352 -78.63867 24040 ft 456 kts 314°
2026-05-05 01:04 26.34734 -78.66202 24042 ft 456 kts 314°
2026-05-05 01:04 26.39471 -78.70840 24039 ft 456 kts 314°
2026-05-05 01:04 26.41854 -78.73175 24043 ft 456 kts 314°
2026-05-05 01:05 26.44235 -78.75514 24038 ft 456 kts 314°
2026-05-05 01:05 26.46620 -78.77855 24042 ft 456 kts 314°
2026-05-05 01:05 26.49004 -78.80189 24039 ft 456 kts 314°
2026-05-05 01:05 26.51390 -78.82531 24043 ft 456 kts 314°
2026-05-05 01:06 26.53771 -78.84874 24040 ft 456 kts 314°
2026-05-05 01:06 26.56148 -78.87215 24040 ft 456 kts 314°
2026-05-05 01:06 26.58530 -78.89556 24041 ft 456 kts 314°
2026-05-05 01:06 26.60910 -78.91898 24041 ft 456 kts 314°
2026-05-05 01:07 26.63260 -78.94215 24043 ft 456 kts 314°
2026-05-05 01:07 26.65667 -78.96599 24042 ft 456 kts 314°
2026-05-05 01:07 26.68008 -78.98914 24043 ft 456 kts 314°
2026-05-05 01:07 26.70382 -79.01258 24040 ft 456 kts 314°
2026-05-05 01:08 26.72758 -79.03603 24039 ft 456 kts 314°
2026-05-05 01:08 26.75131 -79.05953 24044 ft 455 kts 314°
2026-05-05 01:08 26.77500 -79.08304 24041 ft 455 kts 314°
2026-05-05 01:08 26.79873 -79.10650 24045 ft 455 kts 314°
2026-05-05 01:09 26.82251 -79.12999 24042 ft 456 kts 314°
2026-05-05 01:09 26.84628 -79.15344 24044 ft 455 kts 314°
2026-05-05 01:09 26.87006 -79.17690 24041 ft 455 kts 314°
2026-05-05 01:09 26.89375 -79.20036 24038 ft 455 kts 314°
2026-05-05 01:10 26.91747 -79.22390 24038 ft 456 kts 314°
2026-05-05 01:10 26.94085 -79.24712 24040 ft 456 kts 314°
2026-05-05 01:10 26.96462 -79.27078 24046 ft 456 kts 314°
2026-05-05 01:10 26.98831 -79.29436 24056 ft 456 kts 314°
2026-05-05 01:11 27.01205 -79.31791 24046 ft 456 kts 314°
2026-05-05 01:11 27.03578 -79.34153 24059 ft 456 kts 314°
2026-05-05 01:11 27.05948 -79.36513 24057 ft 456 kts 314°
2026-05-05 01:11 27.08315 -79.38880 24054 ft 456 kts 314°
2026-05-05 01:12 27.10688 -79.41245 24056 ft 456 kts 314°
2026-05-05 01:12 27.13054 -79.43604 24051 ft 456 kts 314°
2026-05-05 01:12 27.15431 -79.45974 24057 ft 456 kts 314°
2026-05-05 01:12 27.17768 -79.48304 24062 ft 456 kts 314°
2026-05-05 01:13 27.20096 -79.50716 24050 ft 454 kts 310°
2026-05-05 01:13 27.22077 -79.53451 24054 ft 449 kts 301°
2026-05-05 01:13 27.23637 -79.56470 24052 ft 447 kts 295°
2026-05-05 01:13 27.25035 -79.59592 24057 ft 446 kts 294°
2026-05-05 01:14 27.26411 -79.62719 24059 ft 447 kts 294°
2026-05-05 01:14 27.27799 -79.65843 24058 ft 447 kts 294°
2026-05-05 01:14 27.29197 -79.68944 24057 ft 447 kts 294°
2026-05-05 01:14 27.30603 -79.72054 24058 ft 445 kts 295°
2026-05-05 01:15 27.31991 -79.75113 24058 ft 445 kts 295°
2026-05-05 01:15 27.33394 -79.78216 24056 ft 445 kts 295°
2026-05-05 01:15 27.34791 -79.81322 24057 ft 445 kts 294°
2026-05-05 01:15 27.36183 -79.84440 24058 ft 445 kts 294°
2026-05-05 01:16 27.37568 -79.87542 24054 ft 445 kts 294°
2026-05-05 01:16 27.38961 -79.90658 24057 ft 445 kts 294°
2026-05-05 01:16 27.40352 -79.93764 24056 ft 445 kts 294°
2026-05-05 01:16 27.41723 -79.96832 24055 ft 445 kts 294°
2026-05-05 01:17 27.43123 -79.99944 24057 ft 445 kts 294°
2026-05-05 01:17 27.44520 -80.03054 24060 ft 445 kts 294°
2026-05-05 01:17 27.45913 -80.06168 24056 ft 445 kts 294°
2026-05-05 01:17 27.47301 -80.09278 24054 ft 445 kts 294°
2026-05-05 01:18 27.48688 -80.12386 24019 ft 438 kts 294°
2026-05-05 01:18 27.50045 -80.15428 23597 ft 436 kts 294°
2026-05-05 01:18 27.51407 -80.18486 23258 ft 436 kts 294°
2026-05-05 01:18 27.52763 -80.21530 22963 ft 434 kts 294°
2026-05-05 01:19 27.54112 -80.24568 22692 ft 433 kts 294°
2026-05-05 01:19 27.55435 -80.27556 22447 ft 431 kts 294°
2026-05-05 01:19 27.56770 -80.30567 22196 ft 430 kts 294°
2026-05-05 01:19 27.58103 -80.33579 21938 ft 428 kts 294°
2026-05-05 01:20 27.59433 -80.36577 21695 ft 427 kts 294°
2026-05-05 01:20 27.60759 -80.39561 21449 ft 425 kts 294°
2026-05-05 01:20 27.62082 -80.42542 21199 ft 424 kts 294°
2026-05-05 01:20 27.63395 -80.45511 20889 ft 421 kts 294°
2026-05-05 01:21 27.64690 -80.48438 20238 ft 414 kts 294°
2026-05-05 01:21 27.65943 -80.51276 19594 ft 406 kts 294°
2026-05-05 01:21 27.67195 -80.54116 18928 ft 400 kts 294°
2026-05-05 01:21 27.68418 -80.56894 18244 ft 392 kts 294°
2026-05-05 01:22 27.69627 -80.59642 17498 ft 389 kts 294°
2026-05-05 01:22 27.70827 -80.62371 16891 ft 387 kts 294°
2026-05-05 01:22 27.72020 -80.65077 16347 ft 384 kts 295°
2026-05-05 01:22 27.73203 -80.67771 15785 ft 384 kts 295°
2026-05-05 01:23 27.74375 -80.70434 15222 ft 383 kts 295°
2026-05-05 01:23 27.75560 -80.73135 14693 ft 383 kts 295°
2026-05-05 01:23 27.76741 -80.75825 14163 ft 383 kts 295°
2026-05-05 01:23 27.78076 -80.78419 13558 ft 383 kts 302°
2026-05-05 01:24 27.79570 -80.80904 12931 ft 382 kts 303°
2026-05-05 01:24 27.81078 -80.83382 12289 ft 382 kts 303°
2026-05-05 01:24 27.82561 -80.85826 11777 ft 372 kts 303°
2026-05-05 01:24 27.83990 -80.88187 11499 ft 356 kts 303°
2026-05-05 01:25 27.85357 -80.90451 11282 ft 341 kts 303°
2026-05-05 01:25 27.86658 -80.92614 11096 ft 326 kts 303°
2026-05-05 01:25 27.87890 -80.94653 10763 ft 310 kts 302°
2026-05-05 01:25 27.89074 -80.96618 10395 ft 296 kts 302°
2026-05-05 01:26 27.90203 -80.98493 10097 ft 282 kts 302°
2026-05-05 01:26 27.91287 -81.00295 9875 ft 275 kts 302°
2026-05-05 01:26 27.92360 -81.02079 9581 ft 274 kts 302°
2026-05-05 01:26 27.93592 -81.03720 9262 ft 276 kts 318°
2026-05-05 01:27 27.95273 -81.04780 8939 ft 279 kts 336°
2026-05-05 01:27 27.97096 -81.05535 8638 ft 280 kts 338°
2026-05-05 01:27 27.98931 -81.06276 8316 ft 280 kts 338°
2026-05-05 01:27 28.00763 -81.07028 8003 ft 280 kts 338°
2026-05-05 01:28 28.02591 -81.07790 7703 ft 280 kts 338°
2026-05-05 01:28 28.04415 -81.08555 7398 ft 280 kts 338°
2026-05-05 01:28 28.06216 -81.09313 7085 ft 280 kts 337°
2026-05-05 01:28 28.08027 -81.10077 6838 ft 274 kts 337°
2026-05-05 01:29 28.09784 -81.10813 6691 ft 264 kts 338°
2026-05-05 01:29 28.11472 -81.11515 6570 ft 253 kts 337°
2026-05-05 01:29 28.13089 -81.12188 6415 ft 242 kts 337°
2026-05-05 01:29 28.14642 -81.12836 6238 ft 234 kts 337°
2026-05-05 01:30 28.16125 -81.13537 5949 ft 228 kts 325°
2026-05-05 01:30 28.17197 -81.14775 5632 ft 217 kts 297°
2026-05-05 01:30 28.17627 -81.16367 5364 ft 209 kts 271°
2026-05-05 01:30 28.17532 -81.17960 5138 ft 205 kts 266°
2026-05-05 01:31 28.17764 -81.19536 4912 ft 206 kts 290°
2026-05-05 01:31 28.18371 -81.21009 4678 ft 207 kts 295°
2026-05-05 01:31 28.19015 -81.22474 4458 ft 209 kts 296°
2026-05-05 01:31 28.19640 -81.23921 4277 ft 198 kts 295°
2026-05-05 01:32 28.20217 -81.25275 4184 ft 184 kts 295°
2026-05-05 01:32 28.20803 -81.26661 3985 ft 207 kts 296°
2026-05-05 01:32 28.21718 -81.27893 3944 ft 208 kts 329°
2026-05-05 01:32 28.23092 -81.28251 3687 ft 203 kts
2026-05-05 01:33 28.24510 -81.28168 3366 ft 205 kts
2026-05-05 01:33 28.25949 -81.28133 3020 ft 210 kts
2026-05-05 01:33 28.27350 -81.28127 2916 ft 198 kts
2026-05-05 01:33 28.28728 -81.28127 2590 ft 199 kts
2026-05-05 01:34 28.30118 -81.28138 2222 ft 201 kts
2026-05-05 01:34 28.31530 -81.28149 1859 ft 203 kts
2026-05-05 01:34 28.32892 -81.28164 1570 ft 187 kts
2026-05-05 01:34 28.34076 -81.28179 1579 ft 157 kts
2026-05-05 01:35 28.35080 -81.28191 1420 ft 138 kts
2026-05-05 01:35 28.36037 -81.28207 1152 ft 138 kts
2026-05-05 01:35 28.36981 -81.28195 1003 ft 134 kts
2026-05-05 01:35 28.37912 -81.28192 843 ft 137 kts
2026-05-05 01:36 28.38856 -81.28201 691 ft 135 kts
2026-05-05 01:36 28.39799 -81.28217 546 ft 135 kts
2026-05-05 01:36 28.40737 -81.28226 372 ft 135 kts
2026-05-05 01:36 28.41672 -81.28233 168 ft 134 kts
2026-05-05 01:37 28.42587 -81.28240 115 ft 135 kts
2026-05-05 01:37 28.43718 -81.28244 769 ft 182 kts
2026-05-05 01:37 28.44986 -81.27894 1850 ft 193 kts 27°
2026-05-05 01:37 28.46345 -81.27558 2658 ft 209 kts
2026-05-05 01:38 28.47757 -81.27317 2949 ft 205 kts 24°
2026-05-05 01:38 28.48892 -81.26385 3035 ft 201 kts 53°
2026-05-05 01:38 28.49386 -81.24956 3031 ft 198 kts 85°
2026-05-05 01:38 28.49128 -81.23440 3029 ft 198 kts 110°
2026-05-05 01:39 28.48577 -81.22008 3016 ft 198 kts 113°
2026-05-05 01:39 28.47976 -81.20603 3002 ft 199 kts 122°
2026-05-05 01:39 28.46903 -81.19632 2991 ft 204 kts 154°
2026-05-05 01:39 28.45501 -81.19355 3011 ft 206 kts 172°
2026-05-05 01:40 28.44067 -81.19249 3010 ft 206 kts 173°
2026-05-05 01:40 28.42636 -81.19150 3006 ft 207 kts 173°
2026-05-05 01:40 28.41204 -81.19052 2990 ft 203 kts 173°
2026-05-05 01:40 28.39798 -81.18958 2687 ft 203 kts 173°
2026-05-05 01:41 28.38398 -81.18879 2365 ft 204 kts 173°
2026-05-05 01:41 28.36982 -81.18813 2075 ft 204 kts 173°
2026-05-05 01:41 28.35563 -81.18752 1982 ft 204 kts 173°
2026-05-05 01:41 28.34140 -81.18693 1977 ft 206 kts 173°
2026-05-05 01:42 28.32711 -81.18782 1987 ft 210 kts 188°
2026-05-05 01:42 28.31300 -81.19255 1995 ft 211 kts 192°
2026-05-05 01:42 28.29905 -81.19768 2002 ft 210 kts 193°
2026-05-05 01:42 28.28508 -81.20270 1998 ft 211 kts 193°
2026-05-05 01:43 28.27109 -81.20769 1999 ft 210 kts 193°
2026-05-05 01:43 28.25725 -81.21331 1988 ft 214 kts 205°
2026-05-05 01:43 28.24658 -81.22523 1991 ft 222 kts 237°
2026-05-05 01:43 28.24255 -81.24178 1998 ft 224 kts 268°
2026-05-05 01:44 28.24587 -81.25891 2013 ft 223 kts 291°
2026-05-05 01:44 28.25149 -81.27525 2021 ft 220 kts 293°
2026-05-05 01:44 28.25917 -81.28957 2012 ft 210 kts 315°
2026-05-05 01:44 28.27118 -81.29656 1992 ft 191 kts 356°
2026-05-05 01:45 28.28429 -81.29648 2015 ft 186 kts
2026-05-05 01:45 28.29714 -81.29548 2016 ft 182 kts
2026-05-05 01:45 28.30923 -81.29508 1983 ft 165 kts
2026-05-05 01:45 28.31991 -81.29495 1844 ft 143 kts
2026-05-05 01:46 28.32967 -81.29489 1646 ft 138 kts
2026-05-05 01:46 28.33920 -81.29495 1467 ft 136 kts
2026-05-05 01:46 28.34866 -81.29504 1283 ft 136 kts
2026-05-05 01:46 28.35817 -81.29513 1104 ft 136 kts
2026-05-05 01:47 28.36756 -81.29523 931 ft 135 kts
2026-05-05 01:47 28.37706 -81.29532 742 ft 137 kts
2026-05-05 01:47 28.38646 -81.29542 568 ft 135 kts
2026-05-05 01:47 28.39566 -81.29554 380 ft 134 kts
2026-05-05 01:48 28.40494 -81.29557 207 ft 133 kts
2026-05-05 01:48 28.41404 -81.29562 102 ft 120 kts 359°
2026-05-05 01:48 28.42068 -81.29568 101 ft 70 kts 358°
2026-05-05 01:48 28.42324 -81.29583 101 ft 0 kts 351°
2026-05-05 01:49 28.42374 -81.29597 101 ft 15 kts 340°
2026-05-05 01:49 28.42439 -81.29685 100 ft 18 kts 238°
2026-05-05 01:49 28.42312 -81.29707 100 ft 20 kts 205°
2026-05-05 01:49 28.42281 -81.29864 100 ft 23 kts 270°
2026-05-05 01:50 28.42279 -81.30055 100 ft 25 kts 269°
2026-05-05 01:50 28.42278 -81.30261 100 ft 28 kts 269°
2026-05-05 01:50 28.42267 -81.30487 100 ft 30 kts 265°
2026-05-05 01:50 28.42249 -81.30727 100 ft 21 kts 266°
2026-05-05 01:51 28.42243 -81.30846 103 ft 16 kts 266°
2026-05-05 01:51 28.42235 -81.30984 101 ft 18 kts 267°
2026-05-05 01:51 28.42249 -81.31132 101 ft 20 kts 281°
2026-05-05 01:51 28.42268 -81.31246 100 ft 12 kts 283°
2026-05-05 01:52 28.42343 -81.31283 100 ft 14 kts
2026-05-05 01:52 28.42441 -81.31252 101 ft 16 kts 31°
2026-05-05 01:52 28.42540 -81.31182 102 ft 17 kts 33°
2026-05-05 01:52 28.42641 -81.31123 100 ft 16 kts
2026-05-05 01:53 28.42731 -81.31150 100 ft 4 kts 323°
2026-05-05 01:53 28.42748 -81.31182 100 ft 6 kts 269°
2026-05-05 01:53 28.42738 -81.31211 100 ft 4 kts 251°
2026-05-05 01:53 28.42733 -81.31227 101 ft 0 kts 251°
2026-05-05 01:54 28.42732 -81.31231 101 ft 1 kts 250°
2026-05-05 01:54 28.42727 -81.31246 101 ft 3 kts 250°
2026-05-05 01:54 28.42726 -81.31251 100 ft 1 kts 250°
2026-05-05 01:54 28.42724 -81.31255 100 ft 0 kts 250°